Weather History for KHLC - April, 2013

Change the Weather History Date:

Friday, April 12, 2013

  Actual Average Record
Temperature  
Mean Temperature 43 °F 50 °F  
Max Temperature 61 °F 64 °F 86 °F (1925)
Min Temperature 24 °F 36 °F 13 °F (1940)
Degree Days  
Heating Degree Days 23    
Moisture  
Dew Point 27 °F    
Average Humidity 63    
Maximum Humidity 89    
Minimum Humidity 29    
Precipitation  
Precipitation T in 0.06 in 0.78 in (2009)
Month to date precipitation 0.04 0.70  
Year to date precipitation 2.02 3.30  
Sea Level Pressure  
Sea Level Pressure 29.98 in    
Wind  
Wind Speed 8 mph (NW)    
Max Wind Speed 18 mph    
Max Gust Speed 25 mph    
Visibility 10 miles    
Events      
T = Trace of Precipitation, MM = Missing Value Source: NWS Daily Summary

Daily Weather History Graph

Daily Weather History Graph

Search for Another Location

Airport or City:

Trip Planner

Search our weather history database for the weather conditions in past years. The results will help you decide how hot, cold, wet, or windy it might be!

Date:

Astronomy

Apr. 12, 2013 Rise Set
Actual Time 7:06 AM CDT 8:14 PM CDT
Civil Twilight 6:38 AM CDT 8:42 PM CDT
Nautical Twilight 6:05 AM CDT 9:15 PM CDT
Astronomical Twilight 5:31 AM CDT 9:49 PM CDT
Moon 8:17 AM CDT (4/12) 10:45 PM CDT (4/12)
Length of Visible Light 14h 03m
Length of Day
13h 08m
Waxing Crescent, 5% of the Moon is Illuminated
Apr 12
Waxing Crescent
Apr 18
First Quarter
Apr 25
Full
May 2
Last Quarter
May 9
New

Hourly Weather History & Observations

Time (CDT) Temp. Windchill Dew Point Humidity Pressure Visibility Wind Dir Wind Speed Gust Speed Precip Events Conditions
12:53 AM 28.9 °F 21.1 °F 23.0 °F 78% 29.94 in 10.0 mi WNW 8.1 mph - N/A   Clear
1:53 AM 28.0 °F 20.0 °F 23.0 °F 81% 29.95 in 10.0 mi NW 8.1 mph - N/A   Clear
2:53 AM 27.0 °F 18.7 °F 21.9 °F 81% 29.93 in 10.0 mi WNW 8.1 mph - N/A   Clear
3:53 AM 26.1 °F 18.4 °F 21.0 °F 81% 29.94 in 10.0 mi West 6.9 mph - N/A   Clear
4:53 AM 25.0 °F 16.3 °F 21.0 °F 85% 29.95 in 10.0 mi West 8.1 mph - N/A   Clear
5:53 AM 28.0 °F 20.0 °F 23.0 °F 81% 29.96 in 10.0 mi WNW 8.1 mph - N/A   Clear
6:53 AM 26.1 °F 18.4 °F 21.9 °F 84% 29.97 in 10.0 mi WNW 6.9 mph - N/A   Clear
7:53 AM 27.0 °F 19.5 °F 21.9 °F 81% 29.99 in 10.0 mi West 6.9 mph - N/A   Clear
8:53 AM 37.0 °F 31.0 °F 28.9 °F 73% 29.98 in 10.0 mi WNW 8.1 mph - N/A   Partly Cloudy
9:53 AM 46.9 °F - 30.0 °F 52% 29.99 in 10.0 mi NNW 15.0 mph 23.0 mph N/A   Scattered Clouds
10:53 AM 48.9 °F - 28.9 °F 46% 29.99 in 10.0 mi NNW 15.0 mph 20.7 mph N/A   Scattered Clouds
11:53 AM 51.1 °F - 28.9 °F 43% 29.99 in 10.0 mi NNW 6.9 mph 18.4 mph N/A   Clear
12:53 PM 54.0 °F - 28.9 °F 38% 29.98 in 10.0 mi Variable 6.9 mph - N/A   Clear
1:53 PM 55.9 °F - 28.0 °F 34% 29.97 in 10.0 mi North 9.2 mph - N/A   Partly Cloudy
2:53 PM 57.0 °F - 27.0 °F 32% 29.97 in 10.0 mi Calm Calm - N/A   Overcast
3:53 PM 55.9 °F - 27.0 °F 33% 29.96 in 10.0 mi Calm Calm - 0.00 in   Overcast
4:53 PM 59.0 °F - 27.0 °F 29% 29.95 in 10.0 mi North 8.1 mph - N/A   Mostly Cloudy
5:53 PM 57.0 °F - 28.9 °F 34% 29.95 in 10.0 mi NNE 10.4 mph - N/A   Mostly Cloudy
6:53 PM 53.1 °F - 30.0 °F 41% 29.99 in 10.0 mi NNE 18.4 mph 24.2 mph N/A   Overcast
7:53 PM 46.9 °F - 34.0 °F 61% 30.03 in 10.0 mi North 12.7 mph 25.3 mph 0.00 in   Overcast
8:53 PM 43.0 °F 38.2 °F 35.1 °F 74% 30.04 in 10.0 mi North 8.1 mph - N/A   Mostly Cloudy
9:53 PM 37.0 °F - 33.1 °F 86% 30.05 in 10.0 mi Calm Calm - N/A   Scattered Clouds
10:53 PM 35.1 °F 32.2 °F 30.9 °F 85% 30.07 in 10.0 mi WNW 3.5 mph - N/A   Partly Cloudy
11:53 PM 34.0 °F 28.8 °F 30.9 °F 89% 30.06 in 10.0 mi SW 5.8 mph - N/A   Clear